Location: ??????????
(48.5701°N, 37.7703°E)
Time: 03:30:36
(UTC+00:00)

CZ-4B R/B - Visible Passes

Search period start: 23 October 2020 00:00
Search period end: 02 November 2020 00:00
Orbit: 391 x 461 km, 97.6° (Epoch: 22 October)

Date Brightness Start Highest point End Pass type
(mag) Time Alt. Az. Time Alt. Az. Time Alt. Az.
23 Oct 4.6 00:55:31 10° E 00:57:31 15° ENE 00:59:31 10° NNE visible
23 Oct 1.6 02:26:04 10° S 02:29:25 47° W 02:32:47 10° NNW visible
23 Oct 1.2 15:12:55 10° NNE 15:16:14 88° E 15:19:26 10° SSW visible
24 Oct 2.3 01:43:56 10° SSE 01:47:17 49° ENE 01:50:39 10° N visible
24 Oct 3.3 03:18:09 10° WSW 03:19:49 13° W 03:21:28 10° WNW visible
24 Oct 3.9 16:03:31 10° NNW 16:06:07 22° WNW 16:08:39 10° WSW visible
25 Oct 4.3 01:03:03 10° ESE 01:05:23 17° ENE 01:07:26 11° NNE visible
25 Oct 1.9 02:34:08 10° SSW 02:37:23 38° W 02:40:32 11° NNW visible
25 Oct 1.5 15:20:52 10° N 15:24:09 74° WNW 15:27:18 10° SSW visible
26 Oct 1.9 01:51:47 10° SSE 01:55:11 61° ENE 01:57:09 23° N visible
26 Oct 3.5 03:27:03 10° WSW 03:27:48 11° W 03:28:34 10° WNW visible
26 Oct 4.2 16:11:38 10° NNW 16:13:57 18° WNW 16:16:13 10° WSW visible
27 Oct 4.1 01:10:38 10° ESE 01:13:14 20° ENE 01:13:57 19° NE visible
27 Oct 2.2 02:42:12 10° SSW 02:45:19 31° W 02:47:04 19° NW visible
27 Oct 1.9 15:28:47 10° N 15:32:00 58° WNW 15:35:06 10° SSW visible
28 Oct 1.5 01:59:36 10° SSE 02:03:04 76° ENE 02:04:00 45° N visible
28 Oct 1.9 14:46:45 10° NNE 14:49:46 35° E 14:52:41 10° SSE visible
28 Oct 4.4 16:19:47 10° NNW 16:21:44 15° WNW 16:23:40 10° W visible
29 Oct 3.8 01:18:13 10° ESE 01:20:58 24° ENE 01:20:58 24° ENE visible
29 Oct 2.4 02:50:17 10° SSW 02:53:13 25° W 02:54:06 23° WNW visible
29 Oct 2.4 15:36:42 10° N 15:39:48 45° WNW 15:42:49 10° SW visible
30 Oct 1.3 02:07:27 10° SSE 02:10:54 86° WSW 02:11:07 77° NNW visible
30 Oct 1.5 14:54:30 10° NNE 14:57:36 44° E 15:00:36 10° S visible
30 Oct 4.5 16:28:00 10° NW 16:29:28 13° WNW 16:30:55 10° W visible
31 Oct 3.6 01:25:50 10° SE 01:28:10 26° E 01:28:10 26° E visible
31 Oct 2.7 02:58:23 10° SW 03:01:05 21° W 03:01:19 21° W visible
31 Oct 2.8 15:44:35 10° N 15:47:34 36° WNW 15:50:27 10° SW visible
01 Nov 1.4 02:15:17 10° S 02:18:22 63° SW 02:18:22 63° SW visible
01 Nov 1.3 15:02:14 10° NNE 15:05:23 56° ESE 15:08:25 10° S visible
01 Nov 4.7 16:36:30 10° NW 16:37:10 10° WNW 16:37:49 10° WNW visible
